Tracking 22454 objects as of 5-Mar-2021
HD Live streaming from Space Station
objects crossing your sky now

DELTA 1 DEB

Track DELTA 1 DEB now!
10-day predictions


NORAD ID: 21290
Int'l Code: 1975-052AB
Perigee: 1,097.8 km
Apogee: 1,904.0 km
Inclination: 99.6 °
Period: 115.8 minutes
Semi major axis: 7871 km
RCS: 0.0116 m2 (small)
Launch date: June 12, 1975
Source: United States (US)
Launch site: AIR FORCE WESTERN TEST RANGE (AFWTR)

Note: This is SATELLITE DEBRIS
aabbcc
Your satellite tracking list
Your tracking list is empty




NASA's NSSDC Master Catalog

Two Line Element Set (TLE):
1 21290U 75052AB  21063.05378097 -.00000067  00000-0 -15593-3 0  9995
2 21290  99.5587 336.8637 0512040 205.4424 289.7293 12.43040465352872
Source of the keplerian elements: AFSPC